Date,TemperatureHighF,TemperatureAvgF,TemperatureLowF,DewpointHighF,DewpointAvgF,DewpointLowF,HumidityHigh,HumidityAvg,HumidityLow,PressureMaxIn,PressureMinIn,WindSpeedMaxMPH,WindSpeedAvgMPH,GustSpeedMaxMPH,PrecipitationSumIn
2013-9-9,71,68,68,67,67,66,96,95,86,29.73,29.47,3,2,3,0.00
2013-9-10,91,83,63,65,49,45,99,33,21,29.43,29.17,19,5,19,0.00
2013-9-11,86,73,56,57,39,29,76,34,13,29.51,29.32,14,3,14,0.00
2013-9-12,83,65,53,56,45,40,85,51,22,29.58,29.41,11,2,11,0.00
2013-9-13,74,62,51,56,51,47,88,70,49,29.73,29.61,8,3,11,0.00
2013-9-14,84,67,57,64,59,54,99,79,45,29.54,29.33,14,4,14,0.20
2013-9-15,77,64,53,62,57,53,99,80,55,29.67,29.54,9,2,9,0.00
2013-9-16,68,61,54,62,60,53,99,95,77,29.58,29.28,12,3,12,0.38
2013-9-17,76,65,56,64,60,54,99,84,57,29.20,29.10,14,3,14,0.22
2013-9-18,80,68,58,59,54,46,96,62,33,29.23,29.13,21,6,21,0.00
2013-9-19,81,68,57,50,45,39,73,46,24,29.36,29.18,14,4,14,0.00
2013-9-20,78,65,53,45,40,29,68,44,19,29.46,29.26,18,7,18,0.00
2013-9-21,80,64,50,52,48,43,82,58,31,29.52,29.45,8,2,8,0.00
2013-9-22,86,69,50,60,54,44,99,65,24,29.57,29.44,8,2,8,0.01
2013-9-23,95,83,59,63,48,27,93,37,10,29.51,29.28,12,4,12,0.01
2013-9-24,94,72,62,57,47,34,60,43,13,29.37,29.11,11,2,11,0.00
2013-9-25,97,79,61,60,50,40,61,39,14,29.42,29.29,8,2,8,0.00
2013-9-26,97,78,57,55,46,21,84,40,10,29.51,29.18,32,5,32,0.02
2013-9-27,85,64,53,50,36,25,61,38,12,29.72,29.57,10,2,10,0.00
2013-9-28,91,72,50,55,38,18,99,43,10,29.53,29.27,19,4,19,0.00
2013-9-29,84,69,56,58,48,36,92,51,19,29.63,29.49,10,2,10,0.00
2013-9-30,96,64,50,56,51,28,99,72,10,29.63,29.42,11,2,11,0.00